User: anonymous   Login
Location: Unspecified
(0.0000°N, 0.0000°E)
Time: 02:11:11
(UTC+00:00)
Language:

WORLDVIEW 3 - Orbit

View from above orbital plane
View from above orbital plane
View from above satellite
View from above satellite

Ground track
Ground track

The orbit is defined by the following mean orbital elements,

1 40115U          26145.59464997 +.00000000 +00000-0 +92674-4 0 00007
2 40115  97.8569 220.7395 0002425  61.6201 298.5258 14.84977347    07
Epoch (UTC): 25 May 2026 14:16:17
Eccentricity: 0.0002425
inclination: 97.8569°
perigee height: 612 km
apogee height: 615 km
right ascension of ascending node: 220.7395°
argument of perigee: 61.6201°
revolutions per day: 14.84977347
mean anomaly at epoch: 298.5258°

The dashed part of the orbit path shows where the satellite is in the earth's shadow,  

DLR